Printer-friendly version
Follow the MPC on Twitter Follow the MPC on Facebook The MPC blog
Minor Planet Center

MPEC 2004-F04 : 2000 EK26

The following Minor Planet Electronic Circular may be linked-to from your own Web pages, but must not otherwise be redistributed electronically.

A form allowing access to any MPEC is at the bottom of this page.


Read MPEC 2004-F03 Read MPEC 2004-F05


M.P.E.C. 2004-F04                                Issued 2004 Mar. 16, 12:44 UT

     The Minor Planet Electronic Circulars contain information on unusual
         minor planets and routine data on comets.  They are published
   on behalf of Commission 20 of the International Astronomical Union by the
          Minor Planet Center, Smithsonian Astrophysical Observatory,
                          Cambridge, MA 02138, U.S.A.

         Supported in part by the Steven and Michele Kirsch Foundation
             Prepared using the Tamkin Foundation Computer Network

                              MPC@CFA.HARVARD.EDU
          URL http://cfa-www.harvard.edu/iau/mpc.html  ISSN 1523-6714

                                   2000 EK26

                           Revision to MPEC 2000-E45

Additional Observations:
     K00E26K HC2004 03 15.31452 15 07 58.40 +05 27 55.5          22.5 V EF004291
     K00E26K HC2004 03 15.32185 15 07 58.08 +05 27 58.4          22.7 V EF004291
     K00E26K HC2004 03 15.32918 15 07 57.81 +05 28 04.1          21.9 V EF004291
     K00E26K HC2004 03 16.50215 15 07 14.70 +05 40 12.0          22.4 V EF004291
     K00E26K HC2004 03 16.50967 15 07 14.52 +05 40 16.0          22.1 V EF004291
     K00E26K HC2004 03 16.51704 15 07 14.12 +05 40 22.1          22.4 V EF004291

Observer details:
291 LPL/Spacewatch II.  Observers M. Block, J. V. Scotti.  1.8-m f/2.7
    reflector + CCD.

Orbital elements:
2000 EK26                                                            PHA 0.011
Epoch 2004 July 14.0 TT = JDT 2453200.5                 MPC
M  86.91761              (2000.0)            P               Q
n   0.26411245     Peri.  305.39101     +0.28391302     -0.93420535
a   2.4058957      Node   126.66624     +0.94368246     +0.23233157
e   0.6591869      Incl.   15.62127     +0.16987294     +0.27070725
P   3.73           H   18.0           G   0.15           U   4
Residuals in seconds of arc
000304 704  0.4+  0.7-    000307 046  1.3-  0.3-    000313 046  0.1+  0.8-
000304 704  0.7-  0.5+    000307 557  0.2-  0.1+    000313 046  0.1+  0.6+
000304 704  0.0   0.2-    000307 557  0.3+  0.7-    000313 046  0.1-  0.1+
000304 704  0.9-  0.4+    000308 704  2.0+  1.0-    000313 046  0.7+  0.5+
000304 704  0.4+  0.7-    000308 704  1.0+  0.5-    000314 413  0.4+  0.8-
000305 557  0.5+  0.2-    000308 704  1.8+  1.0+    000430 413  0.0   0.1+
000305 557  0.2-  0.8-    000309 345  0.9-  0.9+    000430 413  0.7+  0.7+
000305 704  0.4-  0.2-    000309 345  0.4-  0.6+    000430 413  0.0   0.3+
000305 704  0.2+  0.8-    000309 345  0.3-  0.5+    040315 291  0.3+  0.1+
000305 704  0.5-  0.7+    000309 345  0.4-  0.9+    040315 291  0.5-  1.5-
000305 704  0.2+  0.6-    000310 461  0.6-  0.6-    040315 291  0.5-  0.4-
000305 704  0.2-  0.0     000310 461  0.7-  1.0-    040316 291  0.6-  0.2+
000307 046  0.1+  1.3+    000310 461  0.1+  1.2-    040316 291  1.2+  0.5-
000307 046  0.3-  0.9-    000313 104  0.1+  0.2+    040316 291  0.5-  1.0+
000307 046  0.1-  0.7+    000313 104  1.6-  1.0+
000307 046  1.4+  1.3+    000313 104  0.3-  0.4+

Ephemeris:
2000 EK26                a,e,i = 2.41, 0.66, 16                  q = 0.8200
Date    TT    R. A. (2000) Decl.     Delta      r     Elong.  Phase     V
2004 03 16    15 07.56   +05 35.0    1.737    2.487   129.1    18.1    22.1
2004 03 26    14 59.96   +07 17.7    1.718    2.557   139.1    14.8    22.0
2004 04 05    14 49.83   +08 53.0    1.721    2.624   148.2    11.6    22.0
2004 04 15    14 38.06   +10 12.3    1.750    2.690   154.4     9.3    22.0
2004 04 25    14 25.79   +11 08.5    1.806    2.753   155.4     8.8    22.1

Timothy B. Spahr             (C) Copyright 2004 MPC           M.P.E.C. 2004-F04

Read MPEC 2004-F03 Read MPEC 2004-F05


MPEC number:

Enter an MPEC number in one of the following forms:

  • 1997-B01 (the full form)
  • J97B01 (the packed version of the full form)
  • B01 (the abbreviated form)

Valid HTML 4.01!